Showing default

COSMOS 2254, 22689

Orbit data source: Space-Track

COSMOS 2254, 22689 is a payload satellite owned by VKS (CIS) in LEO that was launched on Thu, 24 Jun 1993 UTC via a TSIKLON-3 launch vehicle from the Plesetsk Missile And Space Complex (PKMTR). Payload-class satellites include a variety of spacecraft equipped with specific instruments for various scientific and technological missions. These include communications satellites like Starlink; space stations such as the ISS; scientific satellites like the Hubble; Earth observation satellites from companies like Planet Labs, Umbra, and HawkEye 360; GPS; miniature CubeSats for education and research; and military/defense satellites.

Loading next visibility...
Identifier
22689, 1993-038C
Orbit
LEO
Country
Flag of CISCIS
Related business
Manufacturer
NPO PM
Mission
Defense Communications
Bus & Motor
STRELA-3, Unknown motor
Mass
225 kg wet, 225 kg dry
Launch date (UTC)
1993-06-24 (32 years ago)
Launch vehicle
TSIKLON-3
Launch site
Plesetsk Missile And Space Complex (PKMTR)
Object type
Payload
Rocket body
Debris
Shape & HBR
Cyl, 0.8 m
Radar Cross Section
1.257 m², Large (>1 m²)

Expand to show TLE details & history
Last TLE update: 15 hours ago

TLE from 15 hours ago
0 COSMOS 2254
1 22689U 93038C   25340.96685270  .00000010  00000-0 -31975-5 0  9999
2 22689  82.5806 327.2817 0012585  31.7612  20.6656 12.64907502497831
Epoch: 2025-12-06T23:12Z
TLE epoch observation values (Epoch: 2025-12-06T23:12:16.073Z)
Latitude
51.94966°
Longitude
-87.243°
Altitude
1,401.927 km
Speed
7.168 km/s
True Right ascension
22h 27m 14s
True Declination
51° 47' 47"
Sunlit
Object was in daylight at epoch
Visualization orbit readout
Latitude
Unknown
Longitude
Unknown
Altitude
Unknown
Speed
Unknown
Apparent Right ascension
Unknown
Apparent Declination
Unknown
Sunlit
N/A
Visualization observer readout
Local Sidereal Time
12:00:25
Azimuth
Unknown
Elevation
Unknown
Doppler factor
Unknown
Orbital elements
Apogee altitude
1,409.86 km
Perigee altitude
1,390.282 km
Semi-major axis
7,778.208 km
Eccentricity
0.00126
Inclination
82.5806°
RAAN
327.2817°
Arg. of periapsis
31.7612°
True anomaly
20.71657°
Mean anomaly
20.6656°
Eccentric anomaly
20.69108°
Mean motion
3.16391 °/min
Orbital period
113.78 mins
BSTAR
-0.0000031975
Loading maneuver chart data...
Computing Atmospheric mass density...
Loading historical data...
Loading historical data...
Loading historical data...
Loading historical data...
Loading historical data...
Loading historical data...
Loading historical data...

Documentation

Showing up to 5 results
|